KC1HBM Weather Reports


Display with metric or nautical units.
time (UTC)temp
F
wind
direction
speed
MPH
gust
MPH
rain 1hr
in
rain 24hr
in
rain mn
in
humidity
%
barometer
mb
20260905120231 64 312 0.0 0.0 0.00 0.00 0.00 89 1007.1
20260905115726 64 311 0.0 0.0 0.00 0.00 0.00 89 1007.2
20260905115226 64 312 0.0 1.0 0.00 0.00 0.00 90 1007.3
20260905114720 64 312 0.0 1.0 0.00 0.00 0.00 90 1007.3
20260905114219 64 312 0.0 0.0 0.00 0.00 0.00 90 1007.4
20260905113719 64 310 0.0 0.0 0.00 0.00 0.00 90 1007.1
20260905113215 63 314 0.0 0.0 0.00 0.00 0.00 91 1007.2
20260905112715 63 311 0.0 0.0 0.00 0.00 0.00 91 1006.8
20260905112210 63 311 0.0 0.0 0.00 0.00 0.00 92 1007.0
20260905111710 63 311 0.0 0.0 0.00 0.00 0.00 92 1007.2
20260905111209 62 315 0.0 0.0 0.00 0.00 0.00 92 1006.9
20260905110709 62 311 0.0 0.0 0.00 0.00 0.00 93 1006.7
20260905110203 62 311 0.0 0.0 0.00 0.00 0.00 93 1006.8
20260905105659 62 311 0.0 0.0 0.00 0.00 0.00 93 1006.7
20260905105157 62 311 0.0 0.0 0.00 0.00 0.00 93 1006.8
20260905104653 62 311 0.0 0.0 0.00 0.00 0.00 93 1006.9
20260905104149 62 315 0.0 0.0 0.00 0.00 0.00 93 1006.6
20260905103644 62 311 0.0 0.0 0.00 0.00 0.00 94 1006.6
20260905103139 62 315 0.0 0.0 0.00 0.00 0.00 94 1006.6
20260905102635 61 311 0.0 0.0 0.00 0.00 0.00 95 1006.5
20260905102131 61 308 0.0 0.0 0.00 0.00 0.00 95 1006.5
20260905101630 61 311 0.0 0.0 0.00 0.00 0.00 96 1006.5
20260905101128 61 311 0.0 0.0 0.00 0.00 0.00 96 1006.4
20260905100625 61 316 0.0 0.0 0.00 0.00 0.00 96 1006.4
20260905100120 61 311 0.0 0.0 0.00 0.00 0.00 96 1006.4
20260905095619 61 313 0.0 0.0 0.00 0.00 0.00 96 1006.5
20260905095114 61 311 0.0 0.0 0.00 0.00 0.00 96 1006.4
20260905094610 61 311 0.0 0.0 0.00 0.00 0.00 96 1006.3
20260905094108 61 314 0.0 0.0 0.00 0.00 0.00 95 1006.3
20260905093603 61 314 0.0 0.0 0.00 0.00 0.00 95 1006.1
20260905093100 62 315 0.0 0.0 0.00 0.00 0.00 95 1006.2
20260905092559 62 311 0.0 0.0 0.00 0.00 0.00 95 1006.1
20260905092055 62 312 0.0 0.0 0.00 0.00 0.00 95 1006.0
20260905091554 62 311 0.0 0.0 0.00 0.00 0.00 95 1006.2
20260905091049 61 311 0.0 0.0 0.00 0.00 0.00 96 1006.0
20260905090548 61 311 0.0 0.0 0.00 0.00 0.00 96 1005.9
20260905090044 61 311 0.0 0.0 0.00 0.00 0.00 96 1006.0
20260905085542 61 314 0.0 0.0 0.00 0.00 0.00 96 1006.0
20260905085038 61 317 0.0 0.0 0.00 0.00 0.00 96 1005.8
20260905084538 61 311 0.0 0.0 0.00 0.00 0.00 97 1005.9
20260905084033 61 311 0.0 0.0 0.00 0.00 0.00 97 1005.9
20260905083528 62 310 0.0 0.0 0.00 0.00 0.00 97 1005.7
20260905083025 62 314 0.0 0.0 0.00 0.00 0.00 96 1005.6
20260905082520 62 311 0.0 0.0 0.00 0.00 0.00 96 1005.8
20260905082016 62 311 0.0 0.0 0.00 0.00 0.00 96 1005.6
20260905081514 62 311 0.0 0.0 0.00 0.00 0.00 96 1005.9
20260905081015 62 314 0.0 0.0 0.00 0.00 0.00 96 1005.5
20260905080509 62 316 0.0 0.0 0.00 0.00 0.00 96 1005.9
20260905080004 62 318 1.0 1.0 0.00 0.00 0.00 96 1005.4
20260905075457 62 311 0.0 0.0 0.00 0.00 0.00 95 1005.4
20260905074956 62 311 0.0 0.0 0.00 0.00 0.00 94 1005.5
20260905074452 62 315 0.0 0.0 0.00 0.00 0.00 93 1005.3
20260905073948 62 315 0.0 0.0 0.00 0.00 0.00 93 1005.4
20260905073442 62 314 0.0 0.0 0.00 0.00 0.00 93 1005.6
20260905072938 62 315 0.0 0.0 0.00 0.00 0.00 93 1005.5
20260905072432 62 315 0.0 0.0 0.00 0.00 0.00 93 1005.6
20260905071928 62 314 0.0 0.0 0.00 0.00 0.00 93 1005.5
20260905071420 62 316 0.0 0.0 0.00 0.00 0.00 93 1005.3
20260905070918 62 311 0.0 0.0 0.00 0.00 0.00 93 1005.5
20260905070415 63 311 0.0 0.0 0.00 0.00 0.00 93 1005.7
20260905065909 63 311 0.0 0.0 0.00 0.00 0.00 92 1005.8
20260905065407 63 311 0.0 0.0 0.00 0.00 0.00 92 1005.8
20260905064903 63 313 0.0 0.0 0.00 0.00 0.00 92 1005.7
20260905064358 63 310 0.0 0.0 0.00 0.00 0.00 92 1005.7
20260905063857 63 314 0.0 0.0 0.00 0.00 0.00 92 1005.6
20260905063352 63 311 0.0 0.0 0.00 0.00 0.00 92 1005.8
20260905062849 63 311 0.0 0.0 0.00 0.00 0.00 92 1005.7
20260905062348 63 305 0.0 0.0 0.00 0.00 0.00 92 1005.5
20260905061843 63 314 0.0 0.0 0.00 0.00 0.00 92 1005.5
20260905061338 63 314 0.0 0.0 0.00 0.00 0.00 91 1005.4
20260905060832 63 310 0.0 0.0 0.00 0.00 0.00 91 1005.6
20260905060329 63 315 0.0 0.0 0.00 0.00 0.00 91 1005.6
20260905055828 64 314 0.0 0.0 0.00 0.00 0.00 91 1005.7
20260905055323 64 314 0.0 0.0 0.00 0.00 0.00 91 1005.6
20260905054822 64 310 0.0 0.0 0.00 0.00 0.00 91 1005.9
20260905054319 64 311 0.0 1.0 0.00 0.00 0.00 91 1005.6
20260905053818 64 311 0.0 0.0 0.00 0.00 0.00 91 1005.7
20260905053314 64 314 0.0 0.0 0.00 0.00 0.00 91 1005.5
20260905052813 64 314 0.0 0.0 0.00 0.00 0.00 90 1005.8
20260905052308 64 311 0.0 0.0 0.00 0.00 0.00 90 1005.5
20260905051808 64 314 0.0 0.0 0.00 0.00 0.00 90 1005.7
20260905051304 64 311 0.0 0.0 0.00 0.00 0.00 89 1005.8
20260905050801 64 310 0.0 0.0 0.00 0.00 0.00 89 1005.7
20260905050257 64 310 0.0 0.0 0.00 0.00 0.00 89 1005.9
20260905045751 64 310 0.0 0.0 0.00 0.00 0.00 89 1005.6
20260905045247 64 313 0.0 0.0 0.00 0.00 0.00 89 1005.6
20260905044741 64 311 0.0 0.0 0.00 0.00 0.00 90 1005.9
20260905044231 64 310 0.0 0.0 0.00 0.00 0.00 89 1005.9
20260905043730 64 310 0.0 0.0 0.00 0.00 0.00 89 1005.8
20260905043230 64 311 0.0 0.0 0.00 0.00 0.00 89 1005.8
20260905042725 64 314 0.0 0.0 0.00 0.00 0.00 89 1005.6
20260905042224 64 311 0.0 0.0 0.00 0.00 0.00 88 1005.8
20260905041720 65 311 0.0 0.0 0.00 0.00 0.00 88 1005.7
20260905041215 65 313 0.0 0.0 0.00 0.00 0.00 88 1006.0
20260905040710 65 311 0.0 0.0 0.00 0.00 0.00 87 1006.0
20260905040208 66 310 0.0 0.0 0.00 0.00 0.00 86 1006.0
20260905035703 66 311 0.0 0.0 0.00 0.00 0.00 86 1006.0
20260905035200 66 311 0.0 0.0 0.00 0.00 0.00 85 1005.9
20260905034656 66 314 0.0 0.0 0.00 0.00 0.00 85 1005.8
20260905034155 66 315 0.0 0.0 0.00 0.00 0.00 86 1005.9
20260905033654 66 315 0.0 0.0 0.00 0.00 0.00 86 1005.8
20260905033150 66 314 0.0 0.0 0.00 0.00 0.00 87 1005.8
20260905032650 66 313 0.0 0.0 0.00 0.00 0.00 89 1005.7
20260905032150 67 311 0.0 0.0 0.00 0.00 0.00 90 1006.0
20260905031646 67 310 0.0 0.0 0.00 0.00 0.00 88 1005.8
20260905031141 67 311 0.0 0.0 0.00 0.00 0.00 84 1005.9
20260905030636 67 311 0.0 0.0 0.00 0.00 0.00 83 1005.8
20260905030131 68 311 0.0 0.0 0.00 0.00 0.00 83 1005.9
20260905025626 68 310 0.0 0.0 0.00 0.00 0.00 82 1006.1
20260905025122 68 311 0.0 0.0 0.00 0.00 0.00 82 1005.8
20260905024618 68 314 0.0 0.0 0.00 0.00 0.00 81 1005.9
20260905024113 68 312 0.0 0.0 0.00 0.00 0.00 81 1005.8
20260905023608 68 311 0.0 0.0 0.00 0.00 0.00 81 1005.9
20260905023102 69 311 0.0 0.0 0.00 0.00 0.00 80 1006.1
20260905022601 69 310 0.0 0.0 0.00 0.00 0.00 80 1005.9
20260905022057 69 314 0.0 0.0 0.00 0.00 0.00 80 1006.0
20260905021556 69 311 0.0 0.0 0.00 0.00 0.00 79 1006.3
20260905021052 69 310 0.0 0.0 0.00 0.00 0.00 79 1006.2
20260905020551 69 316 0.0 0.0 0.00 0.00 0.00 79 1006.1
20260905020047 69 311 0.0 0.0 0.00 0.00 0.00 80 1006.0
20260905015544 69 314 0.0 0.0 0.00 0.00 0.00 79 1005.9
20260905015040 69 310 0.0 0.0 0.00 0.00 0.00 79 1006.0
20260905014534 69 315 0.0 0.0 0.00 0.00 0.00 79 1006.1
20260905014030 69 315 0.0 0.0 0.00 0.00 0.00 78 1006.1
20260905013526 69 315 0.0 0.0 0.00 0.00 0.00 78 1006.3
20260905013022 69 315 0.0 0.0 0.00 0.00 0.00 79 1006.2
20260905012516 70 315 0.0 0.0 0.00 0.00 0.00 78 1006.2
20260905012013 70 315 0.0 0.0 0.00 0.00 0.00 77 1006.3
20260905011509 70 315 0.0 0.0 0.00 0.00 0.00 77 1006.3
20260905011004 70 315 0.0 0.0 0.00 0.00 0.00 76 1006.2
20260905010503 71 315 0.0 0.0 0.00 0.00 0.00 75 1006.2
20260905005959 71 315 0.0 0.0 0.00 0.00 0.00 74 1006.4
20260905005455 71 315 0.0 0.0 0.00 0.00 0.00 74 1006.3
20260905004950 71 315 0.0 0.0 0.00 0.00 0.00 74 1006.3
20260905004445 72 315 0.0 0.0 0.00 0.00 0.00 72 1006.2
20260905003940 72 315 0.0 0.0 0.00 0.00 0.00 71 1006.1
20260905003436 72 315 0.0 0.0 0.00 0.00 0.00 72 1006.2
20260905002932 72 315 0.0 0.0 0.00 0.00 0.00 71 1006.1
20260905002426 72 315 0.0 0.0 0.00 0.00 0.00 71 1006.3
20260905001925 73 315 0.0 0.0 0.00 0.00 0.00 70 1006.1
20260905001421 73 316 0.0 0.0 0.00 0.00 0.00 70 1006.0
20260905000915 73 315 0.0 0.0 0.00 0.00 0.00 69 1006.0
20260905000411 73 316 0.0 0.0 0.00 0.00 0.00 68 1006.2
20260904235907 73 315 0.0 0.0 0.00 0.00 0.00 68 1006.1
20260904235403 73 313 0.0 0.0 0.00 0.00 0.00 67 1005.8
20260904234902 74 311 0.0 0.0 0.00 0.00 0.00 67 1006.0
20260904234356 74 314 0.0 0.0 0.00 0.00 0.00 67 1005.9
20260904233852 74 316 0.0 0.0 0.00 0.00 0.00 66 1005.9
20260904233348 74 316 0.0 0.0 0.00 0.00 0.00 65 1005.6
20260904232844 74 314 0.0 0.0 0.00 0.00 0.00 65 1005.4
20260904232341 74 314 0.0 0.0 0.00 0.00 0.00 65 1005.4
20260904231836 74 318 0.0 0.0 0.00 0.00 0.00 64 1005.3
20260904231331 75 315 0.0 0.0 0.00 0.00 0.00 64 1005.5
20260904230826 75 311 0.0 0.0 0.00 0.00 0.00 64 1005.5
20260904230325 75 313 0.0 1.0 0.00 0.00 0.00 64 1005.5
20260904225820 75 315 0.0 0.0 0.00 0.00 0.00 63 1005.6
20260904225318 75 315 0.0 1.0 0.00 0.00 0.00 63 1005.6
20260904224812 75 309 0.0 1.0 0.00 0.00 0.00 63 1005.3
20260904224308 75 312 0.0 0.0 0.00 0.00 0.00 63 1005.6
20260904223807 75 315 0.0 0.0 0.00 0.00 0.00 65 1005.2
20260904223302 76 312 0.0 0.0 0.00 0.00 0.00 66 1005.6
20260904222758 76 315 0.0 0.0 0.00 0.00 0.00 65 1005.5
20260904222252 76 314 0.0 0.0 0.00 0.00 0.00 65 1005.7
20260904221747 76 317 0.0 0.0 0.00 0.00 0.00 64 1005.6
20260904221242 76 321 0.0 0.0 0.00 0.00 0.00 64 1005.5
20260904220737 76 313 0.0 0.0 0.00 0.00 0.00 64 1005.6
20260904220236 76 317 0.0 1.0 0.00 0.00 0.00 64 1005.6
20260904215732 76 315 0.0 0.0 0.00 0.00 0.00 66 1005.7
20260904215227 76 323 0.0 0.0 0.00 0.00 0.00 66 1005.6
20260904214722 77 314 0.0 0.0 0.00 0.00 0.00 64 1005.3
20260904214218 77 312 0.0 0.0 0.00 0.00 0.00 64 1005.3
20260904213716 77 324 0.0 0.0 0.00 0.00 0.00 64 1005.4
20260904213213 76 315 0.0 0.0 0.00 0.00 0.00 66 1005.4
20260904212713 75 315 0.0 1.0 0.00 0.00 0.00 81 1005.4
20260904212208 75 310 0.0 0.0 0.00 0.00 0.00 84 1005.4
20260904211707 74 309 0.0 0.0 0.00 0.00 0.00 85 1005.4
20260904211203 74 312 1.0 1.0 0.00 0.00 0.00 87 1005.6
20260904210657 74 315 0.0 0.0 0.00 0.00 0.00 89 1005.5
20260904210153 74 320 0.0 1.0 0.00 0.00 0.00 88 1005.5
20260904205648 74 309 0.0 1.0 0.00 0.00 0.00 88 1005.4
20260904205144 73 330 1.0 1.0 0.00 0.00 0.00 88 1005.6
20260904204640 73 311 0.0 0.0 0.00 0.00 0.00 89 1005.2
20260904204136 73 308 1.0 1.0 0.00 0.00 0.00 89 1005.4
20260904203632 73 306 1.0 2.0 0.00 0.00 0.00 88 1005.5
20260904203128 73 315 0.0 0.0 0.00 0.00 0.00 90 1005.5
20260904202624 74 350 1.0 3.0 0.00 0.00 0.00 88 1005.3
20260904202120 75 309 0.0 0.0 0.00 0.00 0.00 88 1005.5
20260904201620 74 313 0.0 1.0 0.00 0.00 0.00 89 1005.5
20260904201114 75 308 0.0 1.0 0.00 0.00 0.00 87 1005.5
20260904200609 75 310 0.0 0.0 0.00 0.00 0.00 86 1005.6
20260904200104 75 311 0.0 0.0 0.00 0.00 0.00 87 1005.4
20260904195603 75 304 2.0 2.0 0.00 0.00 0.00 86 1005.7
20260904195101 76 300 2.0 2.0 0.00 0.00 0.00 84 1005.5
20260904194556 76 300 0.0 1.0 0.00 0.00 0.00 83 1005.3
20260904194051 76 313 0.0 0.0 0.00 0.00 0.00 84 1005.1
20260904193546 76 333 2.0 2.0 0.00 0.00 0.00 82 1005.4
20260904193043 76 311 0.0 0.0 0.00 0.00 0.00 82 1005.2
20260904192542 76 304 0.0 0.0 0.00 0.00 0.00 83 1005.3
20260904192038 75 312 0.0 1.0 0.00 0.00 0.00 85 1005.4
20260904191535 75 310 0.0 0.0 0.00 0.00 0.00 86 1005.6
20260904191031 74 313 0.0 1.0 0.00 0.00 0.00 86 1005.5
20260904190526 73 308 1.0 1.0 0.00 0.00 0.00 86 1005.8
20260904190022 74 310 1.0 1.0 0.00 0.00 0.00 85 1005.9
20260904185518 74 310 1.0 1.0 0.00 0.00 0.00 86 1006.0
20260904185012 72 296 1.0 2.0 0.00 0.00 0.00 87 1005.9
20260904184507 72 333 3.0 3.0 0.00 0.00 0.00 88 1005.9
20260904184002 71 336 3.0 3.0 0.00 0.00 0.00 90 1005.8
20260904183457 72 312 1.0 1.0 0.00 0.00 0.00 88 1005.8
20260904182952 71 311 0.0 0.0 0.00 0.00 0.00 89 1005.9
20260904182448 71 332 2.0 2.0 0.00 0.00 0.00 89 1006.1
20260904181947 71 301 1.0 2.0 0.00 0.00 0.00 89 1006.0
20260904181443 72 336 1.0 2.0 0.00 0.00 0.00 87 1006.0
20260904180932 73 324 2.0 2.0 0.00 0.00 0.00 86 1005.8
20260904180427 74 312 3.0 3.0 0.00 0.00 0.00 84 1005.9
20260904175926 76 30 3.0 3.0 0.00 0.00 0.00 81 1005.9
20260904175425 76 315 1.0 2.0 0.00 0.00 0.00 82 1005.7
20260904174920 76 312 0.0 0.0 0.00 0.00 0.00 84 1005.6
20260904174415 76 313 0.0 0.0 0.00 0.00 0.00 82 1005.8
20260904173912 77 288 2.0 2.0 0.00 0.00 0.00 82 1005.8
20260904173407 76 306 1.0 1.0 0.00 0.00 0.00 83 1005.8
20260904172902 77 283 4.0 5.0 0.00 0.00 0.00 81 1005.9
20260904172401 77 304 1.0 2.0 0.00 0.00 0.00 82 1005.8
20260904171857 77 312 1.0 1.0 0.00 0.00 0.00 82 1006.1
20260904171352 76 296 2.0 2.0 0.00 0.00 0.00 83 1005.8
20260904170848 76 312 0.0 1.0 0.00 0.00 0.00 84 1006.0
20260904170343 77 314 0.0 1.0 0.00 0.00 0.00 83 1006.0
20260904165838 77 306 2.0 2.0 0.00 0.00 0.00 83 1006.1
20260904165332 78 304 2.0 2.0 0.00 0.00 0.00 81 1006.1
20260904164827 78 301 2.0 2.0 0.00 0.00 0.00 79 1006.4
20260904164327 77 305 1.0 2.0 0.00 0.00 0.00 81 1006.3
20260904163823 78 313 0.0 1.0 0.00 0.00 0.00 81 1006.2
20260904163323 77 307 0.0 1.0 0.00 0.00 0.00 81 1006.3
20260904162822 78 306 2.0 2.0 0.00 0.00 0.00 81 1006.3
20260904162318 78 298 2.0 2.0 0.00 0.00 0.00 80 1006.5
20260904161813 77 292 2.0 2.0 0.00 0.00 0.00 82 1006.6
20260904161308 77 304 1.0 1.0 0.00 0.00 0.00 83 1006.6
20260904160803 79 305 1.0 1.0 0.00 0.00 0.00 80 1006.7
20260904160258 77 302 3.0 3.0 0.00 0.00 0.00 79 1006.6
20260904155753 77 305 1.0 1.0 0.00 0.00 0.00 83 1006.6
20260904155253 77 307 1.0 1.0 0.00 0.00 0.00 81 1006.6
20260904154751 77 304 2.0 2.0 0.00 0.00 0.00 82 1006.9
20260904154247 76 302 2.0 3.0 0.00 0.00 0.00 82 1006.6
20260904153742 76 291 3.0 3.0 0.00 0.00 0.00 81 1006.9
20260904153237 77 305 2.0 2.0 0.00 0.00 0.00 81 1006.9
20260904152733 78 303 3.0 3.0 0.00 0.00 0.00 80 1007.1
20260904152228 78 302 2.0 2.0 0.00 0.00 0.00 79 1007.0
20260904151723 78 303 1.0 2.0 0.00 0.00 0.00 80 1007.0
20260904151222 78 298 1.0 2.0 0.00 0.00 0.00 82 1006.8
20260904150718 79 306 2.0 2.0 0.00 0.00 0.00 79 1007.1
20260904150213 79 305 1.0 2.0 0.00 0.00 0.00 77 1007.1
20260904145711 78 306 0.0 0.0 0.00 0.00 0.00 77 1007.0
20260904145207 78 299 2.0 2.0 0.00 0.00 0.00 79 1007.0
20260904144702 78 301 2.0 2.0 0.00 0.00 0.00 76 1007.1
20260904144158 79 300 1.0 2.0 0.00 0.00 0.00 77 1007.1
20260904143653 78 305 0.0 0.0 0.00 0.00 0.00 79 1006.9
20260904143150 77 302 1.0 1.0 0.00 0.00 0.00 81 1007.1
20260904142646 76 297 2.0 2.0 0.00 0.00 0.00 81 1007.2
20260904142142 75 301 1.0 2.0 0.00 0.00 0.00 83 1007.2
20260904141636 75 297 2.0 2.0 0.00 0.00 0.00 83 1007.4
20260904141132 76 304 2.0 2.0 0.00 0.00 0.00 81 1007.1
20260904140627 75 309 0.0 0.0 0.00 0.00 0.00 83 1007.5
20260904140121 76 309 0.0 1.0 0.00 0.00 0.00 82 1007.4
20260904135620 75 302 1.0 1.0 0.00 0.00 0.00 84 1007.1
20260904135111 75 307 0.0 0.0 0.00 0.00 0.00 83 1007.2
20260904134607 75 308 0.0 0.0 0.00 0.00 0.00 83 1007.4
20260904134106 74 311 0.0 0.0 0.00 0.00 0.00 84 1007.5
20260904133601 72 304 1.0 1.0 0.00 0.00 0.00 89 1007.5
20260904133057 72 311 0.0 1.0 0.00 0.00 0.00 90 1007.5
20260904132556 71 309 2.0 2.0 0.00 0.00 0.00 90 1007.4
20260904132051 71 306 0.0 1.0 0.00 0.00 0.00 92 1007.4
20260904131551 71 309 1.0 1.0 0.00 0.00 0.00 91 1007.5
20260904131047 70 311 0.0 0.0 0.00 0.00 0.00 93 1007.2
20260904130546 68 311 0.0 0.0 0.00 0.00 0.00 95 1007.2
20260904130041 68 311 0.0 0.0 0.00 0.00 0.00 96 1007.2
20260904125538 68 311 0.0 0.0 0.00 0.00 0.00 96 1007.4
20260904125032 68 313 0.0 0.0 0.00 0.00 0.00 97 1007.3
20260904124528 67 329 1.0 1.0 0.00 0.00 0.00 98 1007.6
20260904124023 67 310 0.0 0.0 0.00 0.00 0.00 99 1007.5
20260904123523 66 311 0.0 0.0 0.00 0.00 0.00 99 1007.6
20260904123018 66 309 0.0 0.0 0.00 0.00 0.00 99 1007.5
20260904122513 66 311 0.0 0.0 0.00 0.00 0.00 99 1007.6
20260904122008 66 313 0.0 0.0 0.00 0.00 0.00 99 1007.6
20260904121503 66 312 0.0 0.0 0.00 0.00 0.00 99 1007.3
20260904121000 65 312 0.0 0.0 0.00 0.00 0.00 99 1007.5